Location: Poughquag
(41.6090°N, 73.6820°W)
Time: 23:57:40
(UTC-04:00)

CUBEBUG 2 - Pass Details

Date: 29 May 2024
Orbit: 571 x 666 km, 97.8° (Epoch: 14 June)

Event Time Altitude Azimuth Distance (km) Brightness Sun altitude
Rises 01:51:01 0° 32° (NNE) 2,992 ? -25.2°
Reaches altitude 10° 01:54:06 10° 55° (NE) 2,086 ? -25.1°
Maximum altitude 01:56:49 16° 91° (E) 1,746 ? -24.9°
Enters shadow 01:58:06 14° 110° (ESE) 1,828 ? -24.9°
